Arlanda current weather conditions

sailwx.info

Wind from 320 at 7 knots

Air temperature -6.0° C
Visibility: greater than 5.4 NM
Dewpoint -11.0° C

Last reported at 2017-Feb-24 02:20 UTC.
Time now 2017-Feb-24 03:44 UTC

Location: N 59°39' E 017°56'.
View on Google Maps.

See reports from other nearby stations

  
Tides and Currents Weather Stations Pressure Air Temp Water Temp Dewpoint Dewpoint Depression Visibility Wind Speed Wind Dir Waves Ship Positions
date/time (UTC)wind fromknots sea level pressurealtimeterstation pressurevisibilityair tempwater tempwave heightnotes
2017-Feb-24 02:20 320 7 5.4-6.0
2017-Feb-24 01:50 320 8 5.4-6.0
2017-Feb-24 01:20 310 7 5.4-6.0
2017-Feb-24 00:50 310 6 5.4-5.0
2017-Feb-24 00:20 290 6 5.4-5.0
2017-Feb-23 23:50 280 6 5.4-5.0
2017-Feb-23 23:20 270 6 5.4-5.0
2017-Feb-23 22:50 270 6 5.4-4.0
2017-Feb-23 22:20 270 7 5.4-4.0
2017-Feb-23 21:50 260 7 5.4-5.0
2017-Feb-23 21:20 250 7 5.4-5.0
2017-Feb-23 20:50 240 7 5.4-4.0
2017-Feb-23 20:20 240 7 5.4-4.0
2017-Feb-23 19:50 250 8 5.4-4.0
2017-Feb-23 19:20 250 6 5.4-4.0
2017-Feb-23 18:50 260 6 5.4-4.0
2017-Feb-23 18:20 250 6 5.4-4.0
2017-Feb-23 17:50 250 7 5.4-4.0
2017-Feb-23 17:20 250 6 5.4-3.0
2017-Feb-23 16:50 270 6 5.4-2.0
2017-Feb-23 16:20 280 6 5.4-2.0
2017-Feb-23 15:50 280 8 5.4-1.0
2017-Feb-23 15:20 290 12 5.4-1.0
2017-Feb-23 14:50 280 12 5.4-1.0
2017-Feb-23 14:20 290 13 5.4-1.0
2017-Feb-23 13:50 290 14 gusting 25 5.4-1.0
2017-Feb-23 13:20 310 18 5.4-1.0
2017-Feb-23 12:50 310 20 5.4-1.0
2017-Feb-23 12:20 290 20 5.4-1.0
2017-Feb-23 11:50 290 20 5.4-1.0
2017-Feb-23 11:20 290 20 5.4-1.0
2017-Feb-23 10:50 300 26 gusting 36 5.4-1.0
2017-Feb-23 10:20 290 24 5.4-1.0
2017-Feb-23 09:50 280 19 gusting 32 5.4-1.0
2017-Feb-23 09:20 290 19 5.4-2.0
2017-Feb-23 08:50 290 19 gusting 29 5.4-2.0
2017-Feb-23 08:20 280 15 5.4-2.0
2017-Feb-23 07:50 280 17 5.4-2.0
2017-Feb-23 07:20 280 14 5.4-2.0
2017-Feb-23 06:50 280 13 5.4-2.0
2017-Feb-23 06:20 290 13 5.4-2.0
2017-Feb-23 05:50 290 12 5.4-2.0
2017-Feb-23 05:20 300 13 5.4-2.0
2017-Feb-23 04:50 300 15 5.4-0.0
2017-Feb-23 04:20 290 12 5.4-0.0
2017-Feb-23 03:50 310 13 gusting 24 5.4-0.0
2017-Feb-23 03:20 290 12 5.4-0.0
2017-Feb-23 02:50 290 9 5.4-0.0
2017-Feb-23 02:20 270 7 5.4-0.0
2017-Feb-23 01:50 260 6 5.4-0.0
2017-Feb-23 01:20 270 5 5.4-0.0
2017-Feb-23 00:50 270 6 5.4-0.0
2017-Feb-23 00:20 260 6 5.4-0.0
2017-Feb-22 23:50 260 5 5.4-0.0
2017-Feb-22 23:20 250 5 5.4 1.0
2017-Feb-22 22:50 250 6 5.4 1.0
2017-Feb-22 22:20 250 5 5.4 1.0
2017-Feb-22 21:50 260 4 2.4 1.0 Mist.
2017-Feb-22 21:20 260 6 3.8 1.0 Light drizzle.
2017-Feb-22 20:20 250 5 2.7 2.0 Light drizzle.
2017-Feb-22 19:50 220 7 2.7 2.0 Drizzle.
2017-Feb-22 19:20 260 6 2.7 2.0 Light rain.
2017-Feb-22 18:50 240 8 2.5 2.0 Light rain.
2017-Feb-22 18:20 240 9 2.7 2.0 Light rain.
2017-Feb-22 17:50 240 11 5.4 2.0 Light rain.
2017-Feb-22 17:20 230 9 5.4 2.0
2017-Feb-22 16:50 240 8 5.4 1.0
2017-Feb-22 16:20 250 12 5.4 1.0
2017-Feb-22 15:50 260 17 5.4 1.0
2017-Feb-22 15:20 250 19 5.4 1.0
2017-Feb-22 14:50 250 18 5.4 1.0
2017-Feb-22 14:20 250 18 5.4 1.0 Light rain.
2017-Feb-22 13:50 260 17 5.4 1.0 Light drizzle.
2017-Feb-22 13:20 250 15 5.4 1.0 Light drizzle.
2017-Feb-22 12:50 230 13 5.4 1.0 Mist.
2017-Feb-22 12:20 190 11 3.2 1.0 Mist.
2017-Feb-22 11:50 170 13 1.6 1.0 Light snow.
2017-Feb-22 11:20 150 13 1.1-0.0 Snow.
2017-Feb-22 10:50 150 15 1.1-0.0 Light snow.
2017-Feb-22 10:20 140 15 0.4-0.0 Snow.
2017-Feb-22 09:50 140 14 0.5-0.0 Snow.
2017-Feb-22 09:20 140 17 1.0-0.0 Snow.
2017-Feb-22 08:50 140 15 0.5-0.0 Snow.
2017-Feb-22 08:20 140 14 0.5-0.0 Snow.
2017-Feb-22 07:50 140 13 0.5-0.0 Snow.
2017-Feb-22 07:20 150 13 0.5-0.0 Snow.
2017-Feb-22 06:50 150 14 1.1-0.0 Light snow.
2017-Feb-22 06:20 150 13 1.3-1.0 Light snow.
2017-Feb-22 05:50 150 13 0.9-1.0 Snow.
2017-Feb-22 05:20 150 13 2.2-1.0 Light snow.
2017-Feb-22 04:50 150 13 5.4-1.0 Snow grains.
2017-Feb-22 04:20 150 13 5.4-1.0 Light freezing drizzle.
2017-Feb-22 03:50 150 11 5.4-2.0
2017-Feb-22 03:20 150 9 5.4-2.0